Voltar ao catálogo

SL-12 R/B(2)

AtivoGEO
NORAD 17872·ROCKET BODY·🇷🇺 Russia

Lançado Sep 11, 1976 de Baikonur Cosmodrome

Loading…

TLE

AtualizadoSource: Space-Track

Época: Sep 14, 2026, 20:54 UTC

1 17872U 76092F   26257.87104051  .00000082  00000-0  00000-0 0  9997
2 17872   3.2362 268.6327 0015718 205.4024 248.0171  1.00250760119821

Acompanhe SL-12 R/B(2) em tempo real com AllMySat

Download on the App Store